[[{"header":{"parameterUnit":"m.s-1","parameterCategory":1,"la1":30.2991,"la2":30.254,"lo1":-89.0895,"lo2":-89.0444,"dy":0.0017,"dx":0.0017,"nx":28,"ny":28,"refTime":"2023-10-23T21:00:00:Z","depth":0,"parameterNumber":2,"parameterNumberName":"U-component_of_WINDS"},"data":[0,0,0,0,0,0,0,0,0,0,0,0,0,0,0,0,0,0,0,0,0,0,0,0,0,0,0,0,0,0,0,0,0,0,0,0,0,0,0,0,0,0,0,0,0,0,0,0,0,0,0,0,0,0,0,0,0,0,-6.7914,-6.7916,0,-6.8092,-6.8094,-6.8096,-6.812,-6.8118,-6.8117,-6.8115,-6.8288,-6.8294,-6.83,0,0,0,0,0,0,0,0,0,0,0,0,0,-6.7585,-6.7591,-6.7914,-6.7916,-6.7918,-6.8092,-6.8094,-6.8097,-6.812,-6.8118,-6.8116,-6.8114,-6.8286,-6.8293,-6.8301,0,0,0,0,0,0,0,0,0,0,0,0,0,-6.7742,-6.7593,-6.7913,-6.7951,-6.7956,-6.8092,-6.8095,-6.8097,-6.8121,-6.8118,-6.8116,-6.8113,-6.8283,-6.8292,-6.8302,-6.8408,0,0,-6.833,-6.8334,0,0,0,0,0,0,0,0,-6.7733,-6.7754,-6.7943,-6.7949,-6.7955,-6.8082,-6.8042,-6.8201,-6.8121,-6.8058,-6.8115,-6.8112,-6.8221,-6.8235,-6.8273,-6.8416,-6.8424,-6.8331,-6.8336,-6.834,-6.8343,0,0,0,0,0,0,0,-6.7722,-6.7746,-6.7984,-6.7946,-6.7953,-6.7957,-6.7976,-6.8072,-6.8151,-6.8063,-6.8066,-6.8087,-6.8223,-6.8265,-6.8278,-6.8426,-6.833,-6.8338,-6.8344,-6.8348,-6.8667,-6.867,0,0,0,0,0,0,-6.7706,-6.7737,-6.7978,-6.7989,-6.7836,-6.7965,-6.7986,-6.8043,-6.815,-6.8164,-6.8089,-6.8087,-6.825,-6.8267,-6.8284,-6.8416,-6.834,-6.8349,-6.8354,-6.8664,-6.8667,-6.8671,0,0,0,0,0,0,-6.7699,-6.7727,-6.7971,-6.7864,-6.7896,-6.7973,-6.8037,-6.8048,-6.8089,-6.8169,-6.8182,-6.8117,-6.8249,-6.8271,-6.8378,-6.8422,-6.8353,-6.8361,-6.866,-6.8665,-6.8669,-6.868,0,0,0,0,0,0,-6.7689,-6.7724,-6.7767,-6.7865,-6.7901,-6.8064,-6.8039,-6.8053,-6.8106,-6.8106,-6.8199,-6.8212,-6.8248,-6.8364,-6.8387,-6.8433,-6.8368,-6.8657,-6.8662,-6.8668,-6.8676,-6.8684,-6.8691,0,0,0,0,0,-6.7677,-6.7761,-6.7769,-6.7798,-6.7957,-6.8067,-6.8087,-6.813,-6.811,-6.8152,-6.8204,-6.8209,-6.8415,-6.8375,-6.8401,-6.845,-6.8654,-6.8661,-6.8667,-6.8672,-6.8682,-6.8691,0,0,0,0,0,0,-6.7661,-6.7774,-6.7785,-6.7903,-6.7976,-6.8071,-6.8125,-6.8139,-6.8216,-6.8212,-6.826,-6.8281,-6.8385,-6.8429,-6.8383,-6.856,-6.8532,-6.8544,-6.8527,-6.8537,-6.8545,-6.853,-6.8376,0,0,0,0,0,-6.7672,-6.7755,-6.7848,-6.7943,-6.798,-6.8047,-6.8096,-6.8124,-6.8199,-6.8229,-6.8289,-6.8359,-6.844,-6.8492,-6.857,-6.8684,-6.8703,-6.8731,-6.8739,-6.8744,-6.8753,-6.8816,-6.8829,-6.8692,-6.8692,-6.8692,0,0,-6.7693,-6.7766,-6.7814,-6.7942,-6.8001,-6.8084,-6.8072,-6.8159,-6.822,-6.8241,-6.8346,-6.8393,-6.8476,-6.8587,-6.8638,-6.8626,-6.8796,-6.8753,-6.8757,-6.8762,-6.8824,-6.8837,-6.8848,-6.8697,-6.8696,-6.8695,0,0,-6.7774,-6.7839,-6.7925,-6.7987,-6.8079,-6.8124,-6.8145,-6.8239,-6.8272,-6.838,-6.8398,-6.847,-6.8608,-6.8667,-6.8714,-6.8823,-6.8829,-6.8847,-6.8885,-6.8946,-6.8956,-6.8966,-6.9003,-6.9016,-6.8856,-6.8856,-6.8856,0,-6.7788,-6.7916,-6.7967,-6.8055,-6.8109,-6.8139,-6.8225,-6.8281,-6.8392,-6.8429,-6.8415,-6.8591,-6.8648,-6.8773,-6.88,-6.8839,-6.8862,-6.8834,-6.8952,-6.8962,-6.8972,-6.9007,-6.9021,-6.8857,-6.8857,-6.8857,-6.8857,0,-6.7928,-6.8016,-6.8074,-6.8186,-6.8248,-6.8334,-6.8396,-6.8453,-6.8477,-6.8522,-6.8631,-6.8703,-6.8796,-6.8829,-6.8851,-6.8958,-6.8947,-6.8943,-6.8914,-6.8985,-6.9019,-6.9033,-6.8859,-6.8859,-6.8858,-6.8858,0,0,-6.7997,-6.8141,-6.8161,-6.8212,-6.8319,-6.8386,-6.8475,-6.857,-6.8617,-6.8694,-6.8767,-6.8886,-6.8884,-6.8938,-6.8967,-6.9021,-6.9101,-6.901,-6.9013,-6.9022,-6.9222,-6.9222,-6.9237,-6.9109,-6.9112,-6.9114,-6.9214,0,-6.8089,-6.8249,-6.83,-6.8433,-6.8514,-6.8545,-6.8622,-6.8694,-6.874,-6.8814,-6.8864,-6.8947,-6.8938,-6.8971,-6.9027,-6.908,-6.9141,-6.9074,-6.9174,-6.9177,-6.9149,-6.9255,-6.9256,-6.9346,-6.9228,-6.923,-6.9232,0,-6.8215,-6.8299,-6.8441,-6.854,-6.8576,-6.8644,-6.8736,-6.8808,-6.8891,-6.8921,-6.8984,-6.901,-6.9102,-6.9073,-6.9198,-6.9151,-6.9196,-6.9229,-6.9233,-6.9241,-6.9205,-6.9263,-6.9376,-6.9389,-6.9254,-6.9252,-6.925,0,-6.8249,-6.8398,-6.8502,-6.8546,-6.8663,-6.8711,-6.8761,-6.8842,-6.8897,-6.8978,-6.9014,-6.9103,-6.9151,-6.9219,-6.9268,-6.9243,-6.9389,-6.9364,-6.9413,-6.9412,-6.9439,-6.9435,-6.9558,-6.9474,-6.9474,-6.9473,-6.9473,0,-6.8343,-6.8428,-6.852,-6.8583,-6.868,-6.8737,-6.883,-6.8882,-6.8954,-6.9027,-6.906,-6.9127,-6.919,-6.9265,-6.9304,-6.9401,-6.9423,-6.9448,-6.9456,-6.9443,-6.944,-6.947,-6.9463,-6.9477,-6.9476,-6.9475,-6.9475,0,-6.8395,-6.846,-6.8576,-6.868,-6.8708,-6.8774,-6.8862,-6.8924,-6.8974,-6.9066,-6.9091,-6.9168,-6.9258,-6.9316,-6.943,-6.9457,-6.9562,-6.9571,-6.9535,-6.9538,-6.9584,-6.9577,-6.9726,-6.9748,-6.9652,-6.9653,-6.9654,0,-6.8449,-6.8516,-6.8629,-6.8682,-6.8734,-6.8819,-6.8876,-6.8936,-6.8994,-6.9096,-6.9146,-6.924,-6.9317,-6.9461,-6.9525,-6.9613,-6.9621,-6.9668,-6.9634,-6.9619,-6.9619,-6.9613,-6.9619,-6.9671,-6.9672,-6.9673,-6.9673,0,-6.8536,-6.8567,-6.865,-6.8747,-6.8816,-6.8893,-6.897,-6.9011,-6.9084,-6.9148,-6.9243,-6.9304,-6.9424,-6.9515,-6.961,-6.966,-6.9678,-6.9685,-6.97,-6.9685,-6.966,-6.9672,-6.9546,-6.9679,-6.9679,-6.9678,-6.9678,-6.9678,-6.8589,-6.865,-6.874,-6.8833,-6.8899,-6.8971,-6.9035,-6.9095,-6.9177,-6.9281,-6.9311,-6.941,-6.9493,-6.9623,-6.9675,-6.9752,-6.9745,-6.9768,-6.9774,-6.9778,-6.9777,-6.9652,-6.977,-6.977,-6.9769,-6.9769,-6.9769,0,-6.8676,-6.8737,-6.8823,-6.8932,-6.9005,-6.9022,-6.9109,-6.9167,-6.9255,-6.9333,-6.9411,-6.952,-6.9611,-6.9685,-6.9778,-6.9825,-6.9836,-6.9847,-6.9842,-6.9853,-6.9778,-6.9755,-6.9837,-6.9837,-6.9837,-6.9837,-6.9837,-6.9837,-6.873,-6.8835,-6.8876,-6.9013,-6.9073,-6.9173,-6.9221,-6.9288,-6.935,-6.9473,-6.9549,-6.9599,-6.9675,-6.9774,-6.9858,-6.9877,-6.9908,-6.9917,-6.9938,-6.9866,-6.9858,-6.9851,-6.9828,-6.9925,-6.9925,-7.0006,-7.0006,-7.0007]},{"header":{"parameterUnit":"m.s-1","parameterCategory":1,"la1":30.2991,"la2":30.254,"lo1":-89.0895,"lo2":-89.0444,"dy":0.0017,"dx":0.0017,"nx":28,"ny":28,"refTime":"2023-10-23T21:00:00:Z","depth":0,"parameterNumber":3,"parameterNumberName":"V-component_of_WINDS"},"data":[0,0,0,0,0,0,0,0,0,0,0,0,0,0,0,0,0,0,0,0,0,0,0,0,0,0,0,0,0,0,0,0,0,0,0,0,0,0,0,0,0,0,0,0,0,0,0,0,0,0,0,0,0,0,0,0,0,0,1.6062,1.6063,0,1.6148,1.6149,1.615,1.6235,1.6236,1.6237,1.6239,1.6321,1.6323,1.6324,0,0,0,0,0,0,0,0,0,0,0,0,0,1.597,1.5971,1.6062,1.6063,1.6064,1.6148,1.6149,1.615,1.6235,1.6236,1.6238,1.6239,1.6321,1.6322,1.6324,0,0,0,0,0,0,0,0,0,0,0,0,0,1.6028,1.5971,1.6062,1.6117,1.6123,1.6147,1.6149,1.615,1.6235,1.6236,1.6238,1.624,1.6321,1.6322,1.6324,1.63,0,0,1.6329,1.633,0,0,0,0,0,0,0,0,1.6024,1.6031,1.6108,1.6113,1.612,1.6183,1.6147,1.62,1.6234,1.6192,1.6239,1.6241,1.6274,1.6279,1.6291,1.6304,1.6307,1.6329,1.633,1.6331,1.6332,0,0,0,0,0,0,0,1.602,1.6028,1.6096,1.6109,1.6116,1.6136,1.6147,1.6157,1.6222,1.6196,1.6202,1.6211,1.6277,1.6289,1.6294,1.6309,1.6329,1.6331,1.6332,1.6332,1.6309,1.6308,0,0,0,0,0,0,1.6008,1.6024,1.6093,1.6098,1.6075,1.6137,1.6148,1.6161,1.6222,1.6233,1.621,1.6215,1.6286,1.6292,1.6297,1.6276,1.6331,1.6333,1.6334,1.6311,1.6309,1.6307,0,0,0,0,0,0,1.6006,1.6014,1.609,1.6063,1.6074,1.6137,1.615,1.6161,1.6174,1.6233,1.6244,1.6211,1.6287,1.6295,1.63,1.628,1.6333,1.6335,1.6313,1.631,1.6308,1.6231,0,0,0,0,0,0,1.6003,1.6012,1.6004,1.6062,1.6075,1.6091,1.6149,1.6162,1.6177,1.6185,1.6237,1.6247,1.6289,1.6297,1.6302,1.6283,1.6336,1.6315,1.6312,1.6309,1.6236,1.6226,1.6218,0,0,0,0,0,1.5999,1.5977,1.6003,1.6011,1.6067,1.609,1.6097,1.6148,1.6175,1.6168,1.6206,1.6245,1.6281,1.6297,1.6303,1.6284,1.6317,1.6313,1.6309,1.624,1.6228,1.6219,0,0,0,0,0,0,1.5912,1.5986,1.6015,1.6012,1.6044,1.6104,1.6096,1.6134,1.6158,1.6164,1.6224,1.6235,1.6234,1.6259,1.6275,1.6266,1.6305,1.6302,1.625,1.6239,1.6231,1.6225,1.6338,0,0,0,0,0,1.5893,1.5907,1.597,1.596,1.5976,1.6033,1.6045,1.6081,1.6117,1.6131,1.6169,1.6201,1.622,1.6231,1.6251,1.624,1.6253,1.623,1.6222,1.6214,1.6211,1.621,1.6201,1.6295,1.6295,1.6295,0,0,1.5853,1.5895,1.5899,1.5944,1.5974,1.5987,1.6044,1.6054,1.6064,1.6132,1.614,1.6169,1.6209,1.6207,1.6208,1.6228,1.6189,1.621,1.6203,1.6205,1.6206,1.6197,1.6189,1.6293,1.6293,1.6294,0,0,1.5787,1.5819,1.5817,1.5846,1.5891,1.593,1.5929,1.5985,1.6008,1.6017,1.6069,1.6081,1.6112,1.6139,1.6157,1.6104,1.6142,1.6109,1.6063,1.6062,1.6054,1.6048,1.6031,1.6024,1.6106,1.6105,1.6105,0,1.573,1.5753,1.581,1.5819,1.5837,1.5902,1.59,1.5925,1.5973,1.5985,1.6007,1.605,1.608,1.6087,1.6075,1.6086,1.6088,1.6103,1.6051,1.6045,1.604,1.6025,1.6018,1.6101,1.6102,1.6102,1.6103,0,1.5683,1.5698,1.569,1.5739,1.5757,1.576,1.5817,1.5828,1.5863,1.59,1.591,1.595,1.5981,1.5985,1.6018,1.5996,1.6008,1.604,1.608,1.6026,1.6013,1.6007,1.6095,1.6097,1.6098,1.6099,0,0,1.5563,1.5646,1.5642,1.5666,1.5722,1.5735,1.5741,1.5774,1.5783,1.5814,1.5822,1.5848,1.5879,1.5899,1.5936,1.5934,1.5893,1.5967,1.5969,1.5953,1.5875,1.5852,1.5844,1.5919,1.5918,1.5917,1.5872,0,1.5508,1.5526,1.5578,1.5579,1.5595,1.5658,1.5663,1.5698,1.5733,1.575,1.5788,1.5807,1.5845,1.5858,1.5859,1.5898,1.5878,1.5902,1.5927,1.5927,1.5916,1.5837,1.5812,1.5767,1.5867,1.5866,1.5865,0,1.5446,1.5477,1.548,1.5539,1.5548,1.5552,1.5588,1.5604,1.5645,1.567,1.5694,1.5737,1.5747,1.5784,1.58,1.5815,1.5828,1.5849,1.5849,1.5854,1.5893,1.5841,1.5754,1.5748,1.5857,1.5858,1.5859,0,1.5361,1.5403,1.5412,1.543,1.5498,1.55,1.5528,1.5571,1.5588,1.5619,1.5631,1.5661,1.5678,1.5701,1.575,1.5772,1.5761,1.5801,1.5783,1.5782,1.5779,1.5778,1.5694,1.5784,1.5784,1.5785,1.5785,0,1.5295,1.5295,1.5376,1.5381,1.5384,1.5444,1.5444,1.5478,1.5516,1.5529,1.5583,1.5594,1.5659,1.5677,1.5715,1.5724,1.573,1.5751,1.5762,1.5748,1.5745,1.5758,1.5763,1.5783,1.5783,1.5784,1.5784,0,1.5201,1.5255,1.5269,1.5333,1.5349,1.5348,1.5403,1.541,1.5449,1.5465,1.5472,1.5532,1.5557,1.5609,1.5646,1.5672,1.5672,1.569,1.5659,1.5666,1.5645,1.5647,1.5568,1.5561,1.5653,1.5652,1.5651,0,1.5156,1.5158,1.5224,1.5238,1.5264,1.5285,1.5304,1.5363,1.5381,1.5429,1.5431,1.5461,1.5487,1.5523,1.557,1.56,1.562,1.559,1.5624,1.5611,1.5622,1.5622,1.5623,1.5582,1.5581,1.558,1.5579,0,1.5071,1.5099,1.5125,1.5161,1.5183,1.5213,1.5247,1.5254,1.5322,1.5338,1.5366,1.5386,1.5427,1.5456,1.5493,1.5521,1.5561,1.5568,1.5565,1.5551,1.5535,1.5546,1.564,1.5569,1.557,1.5571,1.5571,1.5572,1.5002,1.5008,1.5057,1.5084,1.5117,1.5147,1.5159,1.52,1.5224,1.5264,1.5297,1.5321,1.5364,1.5419,1.5445,1.5465,1.5484,1.548,1.548,1.5478,1.5473,1.553,1.5471,1.5471,1.5472,1.5472,1.5472,0,1.4923,1.4957,1.4982,1.5029,1.5052,1.509,1.5129,1.5145,1.5167,1.5204,1.5231,1.5263,1.5292,1.5341,1.5375,1.5381,1.54,1.5388,1.5389,1.5395,1.5452,1.5452,1.5372,1.5372,1.5372,1.5372,1.5372,1.5372,1.4884,1.4898,1.4931,1.4961,1.4996,1.5022,1.5042,1.5071,1.5101,1.5136,1.5161,1.5194,1.5237,1.5274,1.5302,1.5316,1.5327,1.5308,1.5328,1.5381,1.539,1.5399,1.54,1.531,1.5309,1.5269,1.5269,1.5269]}]]